Location: Moonridge Observatory
(39.2268°N, 77.7914°W)
Time: 19:09:56
(UTC-04:00)

Amateur Radio Satellites - All Passes

Search period start: 23 July 2016 18:39
Search period end: 24 July 2016 18:39
Location: Moonridge Observatory, 39.2268°N, 77.7914°W

Satellite Date Start Highest point End Downlink Frequencies (MHz)
Time Altitude Azimuth
GOMX 1 23 Jul 18:48:52 18:52:59 72° 75° (ENE) 18:57:12 467.674
RS-15 23 Jul 18:59:36 19:10:11 36° 255° (WSW) 19:20:37 29.354- 29.394
Cubesat XI-IV 23 Jul 19:00:33 19:05:53 64° 258° (WSW) 19:11:15 437.490
CANX-2 23 Jul 19:02:28 19:03:42 11° 64° (ENE) 19:04:57 2200.000
DOVE 4 23 Jul 19:02:49 19:06:48 43° 72° (ENE) 19:10:58 437.250
BRITE-PL 23 Jul 19:04:15 19:07:57 30° 263° (W) 19:11:36 437.365/2234.400
STARS 23 Jul 19:08:24 19:09:47 11° 298° (WNW) 19:11:09 437.465
LilacSat-2 23 Jul 19:14:26 19:17:59 35° 263° (W) 19:21:35 437.200
CUTE 1.7 + AOD 2 23 Jul 19:15:42 19:17:53 14° 65° (ENE) 19:20:03 437.475
STRAND 1 23 Jul 19:18:28 19:21:17 15° 91° (E) 19:24:05 437.568
CUTE-I 23 Jul 19:26:06 19:31:02 37° 262° (W) 19:36:00 437.470
NOAA 18 23 Jul 19:27:16 19:32:18 36° 262° (W) 19:37:24 137.9125
CUBESAT XI-V 23 Jul 19:28:25 19:32:12 26° 291° (WNW) 19:35:59 437.345
PCSat 23 Jul 19:32:32 19:36:12 19° 105° (ESE) 19:39:53 145.827
PHONESAT 2.4 23 Jul 19:44:05 19:47:07 57° 161° (SSE) 19:50:09 2401.200-2431.200
CINEMA 3 23 Jul 19:44:20 19:48:22 35° 70° (ENE) 19:52:35 145.822/145.860
CUBEBUG 2 23 Jul 19:45:20 19:46:51 12° 62° (ENE) 19:48:23 437.445
BEESAT 2 23 Jul 19:51:08 19:54:36 30° 114° (ESE) 19:58:06 435.950
BEESAT 3 23 Jul 19:52:50 19:56:42 63° 118° (ESE) 20:00:36 437.485
SEEDS 23 Jul 20:00:43 20:04:25 30° 71° (ENE) 20:08:08 437.485
HO-68 23 Jul 20:01:09 20:08:13 65° 70° (ENE) 20:15:21 435.675
SO-50 23 Jul 20:02:12 20:04:42 15° 252° (WSW) 20:07:09 436.795
NOAA 15 23 Jul 20:03:11 20:05:18 12° 270° (W) 20:07:25 137.62
YUBILEINY 23 Jul 20:15:35 20:21:47 20° 65° (ENE) 20:27:56 435.215
COMPASS 1 23 Jul 20:20:05 20:23:53 34° 71° (ENE) 20:27:41 437.405
Oscar 11 23 Jul 20:30:28 20:32:59 15° 65° (ENE) 20:35:30 145.826/435.025
CANX-2 23 Jul 20:34:44 20:39:00 65° 260° (W) 20:43:16 2200.000
DOVE 4 23 Jul 20:42:31 20:44:49 14° 269° (W) 20:47:09 437.250
O/OREOS (USA 219) 23 Jul 20:45:30 20:47:51 14° 99° (E) 20:50:12 437.305
CUTE 1.7 + AOD 2 23 Jul 20:49:06 20:53:16 51° 260° (W) 20:57:27 437.475
AAUSAT CUBESAT 2 23 Jul 20:52:07 20:56:14 65° 75° (ENE) 21:00:22 437.432
STRAND 1 23 Jul 20:55:48 21:00:51 61° 287° (WNW) 21:05:51 437.568
PRISM 23 Jul 20:59:31 21:02:22 18° 94° (E) 21:05:14 437.425
UWE-3 23 Jul 21:04:52 21:09:15 54° 74° (ENE) 21:13:47 435.000/436.395/437.385
M-CUBED/EXP-1 PRIME 23 Jul 21:13:31 21:16:27 23° 62° (ENE) 21:19:35 437.505
PCSat 23 Jul 21:13:47 21:19:06 57° 302° (WNW) 21:24:28 145.827
ZACube-1 23 Jul 21:14:48 21:19:04 45° 73° (ENE) 21:23:26 437.345
FUNcube-1 23 Jul 21:16:11 21:20:26 43° 72° (ENE) 21:24:46 145.935
CUBEBUG 2 23 Jul 21:18:17 21:22:46 73° 259° (WSW) 21:27:27 437.445
AIST 2 23 Jul 21:19:43 21:21:25 12° 108° (ESE) 21:23:07 435.215
PHONESAT 2.4 23 Jul 21:20:34 21:23:39 67° 358° (N) 21:26:43 2401.200-2431.200
CINEMA 3 23 Jul 21:22:23 21:25:38 20° 268° (W) 21:28:59 145.822/145.860
BEESAT 2 23 Jul 21:29:14 21:32:26 23° 311° (NW) 21:35:39 435.950
HUMSAT D 23 Jul 21:30:54 21:33:17 15° 65° (ENE) 21:35:41 437.325/437.525
BEESAT 3 23 Jul 21:32:48 21:34:46 13° 316° (NW) 21:36:46 437.485
Cosmos 2491 23 Jul 21:35:12 21:42:40 33° 85° (E) 21:50:07 435.465 / 435.565
SEEDS 23 Jul 21:36:53 21:40:07 21° 266° (W) 21:43:22 437.485
AUBIESAT-1 23 Jul 21:42:30 21:45:58 40° 67° (ENE) 21:49:42 437.475
DELFI C3 23 Jul 21:48:54 21:52:43 45° 74° (ENE) 21:56:32 145.870
HO-68 23 Jul 21:51:01 21:56:25 23° 267° (W) 22:01:49 435.675
COMPASS 1 23 Jul 21:56:37 21:59:31 18° 267° (W) 22:02:24 437.405
Oscar 11 23 Jul 22:04:30 22:08:42 47° 261° (W) 22:12:56 145.826/435.025
YUBILEINY 23 Jul 22:10:47 22:19:40 83° 264° (W) 22:28:28 435.215
TIGRISAT 23 Jul 22:15:55 22:16:47 10° 89° (E) 22:17:38 435.000
O/OREOS (USA 219) 23 Jul 22:22:27 22:26:46 49° 295° (WNW) 22:31:07 437.305
UNISAT 6 23 Jul 22:29:04 22:32:02 17° 92° (E) 22:34:56 437.425
ISS 23 Jul 22:32:10 22:35:05 31° 135° (SE) 22:38:01 145.825
Cosmos 2504 23 Jul 22:34:01 22:42:00 49° 76° (ENE) 22:49:22 435.465 / 435.565
PRISM 23 Jul 22:34:05 22:37:44 32° 290° (WNW) 22:41:24 437.425
ESTCUBE 1 23 Jul 22:39:14 22:41:49 15° 64° (ENE) 22:44:23 437.505/2401.250
UWE-3 23 Jul 22:43:46 22:46:03 14° 270° (W) 22:48:23 435.000/436.395/437.385
M-CUBED/EXP-1 PRIME 23 Jul 22:48:00 22:50:55 23° 261° (W) 22:54:01 437.505
ZACube-1 23 Jul 22:52:45 22:55:34 16° 268° (W) 22:58:25 437.345
FUNcube-1 23 Jul 22:53:59 22:56:52 17° 268° (W) 22:59:48 145.935
AIST 2 23 Jul 22:55:22 22:59:24 55° 304° (NW) 23:03:28 435.215
PHONESAT 2.4 23 Jul 22:57:09 23:00:15 81° 193° (SSW) 23:03:19 2401.200-2431.200
PCSat 23 Jul 23:03:05 23:03:43 10° 322° (NW) 23:04:20 145.827
HUMSAT D 23 Jul 23:04:19 23:08:29 48° 261° (W) 23:12:40 437.325/437.525
ANTELSAT 23 Jul 23:06:34 23:11:00 41° 98° (E) 23:15:19 437.575/2403.000
VELOX 1 23 Jul 23:12:06 23:15:13 19° 66° (ENE) 23:18:21 145.980
AUBIESAT-1 23 Jul 23:19:00 23:20:44 13° 265° (W) 23:22:31 437.475
CUBEBUG 1 23 Jul 23:23:06 23:26:46 28° 69° (ENE) 23:30:26 437.445
DELFI C3 23 Jul 23:26:09 23:27:48 12° 268° (W) 23:29:27 145.870
Cosmos 2491 23 Jul 23:30:43 23:39:06 51° 283° (WNW) 23:47:32 435.465 / 435.565
SPROUT 23 Jul 23:36:52 23:39:28 16° 65° (ENE) 23:42:05 437.525
QB50P2 23 Jul 23:40:52 23:43:22 15° 92° (E) 23:45:50 145.880/145.840
POLYITAN 1 23 Jul 23:43:27 23:46:02 15° 92° (E) 23:48:34 437.675
TIGRISAT 23 Jul 23:49:18 23:53:58 71° 284° (WNW) 23:58:30 435.000
AO-85 23 Jul 23:54:50 23:59:06 47° 54° (NE) 00:03:01 145.980
AISAT 23 Jul 23:55:04 23:59:21 60° 75° (ENE) 00:03:42 437.250
UNISAT 6 24 Jul 00:04:30 00:08:58 45° 288° (WNW) 00:13:19 437.425
ISS 24 Jul 00:08:38 00:11:31 28° 331° (NNW) 00:14:25 145.825
DX 1 24 Jul 00:08:41 00:12:55 59° 74° (ENE) 00:17:12 434.975-435.025
YUBILEINY 24 Jul 00:10:37 00:14:58 15° 284° (WNW) 00:19:19 435.215
ESTCUBE 1 24 Jul 00:13:48 00:18:10 51° 260° (W) 00:22:34 437.505/2401.250
50 SAT 24 Jul 00:15:11 00:18:52 73° 258° (WSW) 00:22:32 437.505
Cosmos 2504 24 Jul 00:28:01 00:34:56 31° 276° (W) 00:41:27 435.465 / 435.565
NANOSAT C BR1 24 Jul 00:29:04 00:33:13 48° 99° (E) 00:37:20 145.865
UKube-1 24 Jul 00:29:43 00:34:01 82° 76° (ENE) 00:38:20 .
PHONESAT 2.4 24 Jul 00:34:06 00:36:30 20° 209° (SSW) 00:38:51 2401.200-2431.200
DUCHIFAT 1 24 Jul 00:35:16 00:39:27 53° 100° (E) 00:43:37 145.980
ANTELSAT 24 Jul 00:44:05 00:47:21 19° 294° (WNW) 00:50:35 437.575/2403.000
TISAT 1 24 Jul 00:45:52 00:49:04 22° 68° (ENE) 00:52:17 437.305
VELOX 1 24 Jul 00:47:22 00:51:25 36° 262° (W) 00:55:29 145.980
QB50P1 24 Jul 00:49:05 00:53:23 88° 95° (E) 00:57:40 145.935-145.965
POPSAT HIP 1 24 Jul 00:55:09 00:59:29 81° 282° (WNW) 01:03:45 437.405
CUBEBUG 1 24 Jul 00:59:33 01:03:01 23° 265° (W) 01:06:30 437.445
BUGSAT 1 24 Jul 01:06:00 01:10:09 51° 100° (E) 01:14:18 437.445
AIST 1 24 Jul 01:06:33 01:10:39 41° 78° (ENE) 01:14:46
SPROUT 24 Jul 01:11:00 01:15:02 43° 261° (W) 01:19:09 437.525
QB50P2 24 Jul 01:15:17 01:19:21 43° 288° (WNW) 01:23:24 145.880/145.840
POLYITAN 1 24 Jul 01:17:56 01:22:01 42° 288° (WNW) 01:26:03 437.675
AISAT 24 Jul 01:34:52 01:36:12 11° 269° (W) 01:37:32 437.250
AO-85 24 Jul 01:36:40 01:39:00 15° 252° (WSW) 01:41:15 145.980
Oscar 19 24 Jul 01:47:07 01:51:13 24° 95° (E) 01:55:19 437.125/150
ISS 24 Jul 01:47:59 01:48:48 11° 351° (N) 01:49:35 145.825
DX 1 24 Jul 01:48:15 01:49:28 11° 269° (W) 01:50:42 434.975-435.025
JAS-2 24 Jul 01:48:39 01:53:55 86° 104° (ESE) 01:59:35 435.910
NANOSAT C BR1 24 Jul 02:06:10 02:08:32 15° 295° (WNW) 02:10:53 145.865
SWISSCUBE 24 Jul 02:07:33 02:11:57 38° 70° (ENE) 02:16:23 437.505
DUCHIFAT 1 24 Jul 02:12:36 02:14:41 13° 296° (WNW) 02:16:44 145.980
GONETS M04 24 Jul 02:18:16 02:25:42 29° 70° (ENE) 02:33:04
TISAT 1 24 Jul 02:20:53 02:24:32 29° 263° (W) 02:28:14 437.305
BEESAT 24 Jul 02:29:03 02:33:44 57° 73° (ENE) 02:38:26 436.000
Gurwin Techsat 1B 24 Jul 02:36:28 02:41:10 31° 96° (E) 02:45:50 435.225
BUGSAT 1 24 Jul 02:42:56 02:45:04 14° 296° (WNW) 02:47:13 437.445
AIST 1 24 Jul 02:45:24 02:47:52 15° 274° (W) 02:50:20
ITUPSAT 1 24 Jul 02:49:28 02:54:17 90° 77° (ENE) 02:59:08 437.325
ITAMSAT 1 24 Jul 03:13:16 03:17:16 22° 94° (E) 03:21:14 435.822/435.867
ISS 24 Jul 03:25:22 03:26:26 11° 11° (NNE) 03:27:29 145.825
Oscar 19 24 Jul 03:25:51 03:30:38 39° 290° (WNW) 03:35:25 437.125/150
KKS-1 24 Jul 03:36:29 03:40:23 32° 70° (ENE) 03:44:20 437.445
JAS-2 24 Jul 03:36:50 03:38:22 11° 300° (WNW) 03:39:55 435.910
Cosmos 2499 24 Jul 03:37:36 03:45:30 62° 79° (E) 03:52:45 435.465 / 435.565
MOZHAYETS 4 24 Jul 03:43:25 03:47:44 39° 71° (ENE) 03:52:02
SWISSCUBE 24 Jul 03:46:11 03:49:50 21° 266° (W) 03:53:30 437.505
DANDE 24 Jul 03:58:49 04:01:30 13° 91° (E) 04:03:55 436.750
AO-7 24 Jul 04:08:47 04:16:18 35° 98° (E) 04:23:43 29.400- 29.500
BEESAT 24 Jul 04:09:18 04:11:51 14° 268° (W) 04:14:23 436.000
CUSAT 1 24 Jul 04:09:45 04:14:04 34° 97° (E) 04:17:28 437.405
BEESAT 2 24 Jul 04:10:30 04:13:01 16° 45° (NE) 04:15:32 435.950
BEESAT 3 24 Jul 04:11:17 04:14:41 27° 51° (NE) 04:18:04 437.485
GONETS M04 24 Jul 04:14:24 04:22:59 60° 269° (W) 04:31:35
Gurwin Techsat 1B 24 Jul 04:16:24 04:21:03 31° 292° (WNW) 04:25:41 435.225
PCSat 24 Jul 04:20:45 04:23:52 15° 43° (NE) 04:27:00 145.827
STARS 24 Jul 04:24:56 04:29:11 53° 73° (ENE) 04:33:29 437.465
ITAMSAT 1 24 Jul 04:52:00 04:56:53 42° 290° (WNW) 05:01:43 435.822/435.867
CUBESAT XI-V 24 Jul 04:53:22 04:57:10 26° 69° (ENE) 05:00:58 437.345
HORYU 2 24 Jul 04:55:12 04:56:04 10° 90° (E) 04:56:56 437.375
ISS 24 Jul 05:00:38 05:03:38 33° 31° (NNE) 05:06:38 145.825
JUGNU 24 Jul 05:03:43 05:04:53 11° 177° (S) 05:06:02 437.505
KKS-1 24 Jul 05:13:32 05:16:58 22° 265° (W) 05:20:27 437.445
MOZHAYETS 4 24 Jul 05:21:40 05:25:00 19° 267° (W) 05:28:21
Cosmos 2499 24 Jul 05:32:01 05:37:48 23° 279° (W) 05:43:17 435.465 / 435.565
DANDE 24 Jul 05:37:50 05:44:09 70° 279° (W) 05:48:53 436.750
BEESAT 2 24 Jul 05:47:15 05:51:08 51° 243° (WSW) 05:55:00 435.950
BEESAT 3 24 Jul 05:49:00 05:52:16 25° 247° (WSW) 05:55:32 437.485
CUSAT 1 24 Jul 05:53:26 05:55:56 15° 283° (WNW) 05:58:09 437.405
AO-7 24 Jul 06:01:15 06:09:12 51° 296° (WNW) 06:17:07 29.400- 29.500
PCSat 24 Jul 06:02:34 06:08:02 90° 245° (WSW) 06:13:27 145.827
STARS 24 Jul 06:03:50 06:05:50 13° 268° (W) 06:07:52 437.465
CUTE-I 24 Jul 06:07:17 06:08:22 11° 89° (E) 06:09:28 437.470
NOAA 18 24 Jul 06:11:50 06:14:07 12° 90° (E) 06:16:24 137.9125
HORYU 2 24 Jul 06:28:35 06:33:03 67° 286° (WNW) 06:37:28 437.375
CUBESAT XI-V 24 Jul 06:30:23 06:34:25 29° 264° (W) 06:38:28 437.345
STRAND 1 24 Jul 06:33:03 06:36:47 21° 65° (ENE) 06:40:32 437.568
NOAA 15 24 Jul 06:36:23 06:40:57 30° 96° (E) 06:45:31 137.62
ISS 24 Jul 06:37:13 06:40:00 26° 227° (SW) 06:42:45 145.825
LilacSat-2 24 Jul 06:48:58 06:52:12 25° 95° (E) 06:55:24 437.200
GOMX 1 24 Jul 06:50:56 06:55:06 26° 95° (E) 06:59:27 467.674
O/OREOS (USA 219) 24 Jul 06:54:31 06:58:15 25° 60° (ENE) 07:01:59 437.305
DOVE 4 24 Jul 07:03:00 07:06:08 16° 91° (E) 07:09:20 437.250
BRITE-PL 24 Jul 07:07:54 07:12:39 81° 103° (ESE) 07:17:46 437.365/2234.400
RS-15 24 Jul 07:08:05 07:18:41 47° 108° (ESE) 07:29:47 29.354- 29.394
SRMSAT 24 Jul 07:13:42 07:14:45 10° 177° (S) 07:15:47 437.500
AIST 2 24 Jul 07:17:30 07:21:40 65° 58° (ENE) 07:25:48 435.215
Cubesat XI-IV 24 Jul 07:18:53 07:24:10 56° 101° (E) 07:29:23 437.490
HO-68 24 Jul 07:34:07 07:35:52 11° 87° (E) 07:37:38 435.675
CINEMA 3 24 Jul 07:42:20 07:43:36 11° 88° (E) 07:44:51 145.822/145.860
CUTE-I 24 Jul 07:43:41 07:49:03 85° 284° (WNW) 07:54:23 437.470
Cosmos 2491 24 Jul 07:47:39 07:52:14 15° 61° (ENE) 07:56:48 435.465 / 435.565
PRISM 24 Jul 07:49:19 07:51:00 12° 64° (ENE) 07:52:40 437.425
PCSat 24 Jul 07:49:35 07:50:35 10° 259° (WSW) 07:51:33 145.827
NOAA 18 24 Jul 07:49:47 07:55:22 79° 286° (WNW) 08:00:53 137.9125
AO-7 24 Jul 07:58:24 07:59:59 11° 317° (NW) 08:01:34 29.400- 29.500
STRAND 1 24 Jul 08:10:39 08:15:36 47° 261° (W) 08:20:35 437.568
NOAA 15 24 Jul 08:16:03 08:20:41 32° 292° (WNW) 08:25:19 137.62
CANX-2 24 Jul 08:21:27 08:24:47 22° 94° (E) 08:28:05 2200.000
LilacSat-2 24 Jul 08:23:23 08:26:21 21° 291° (WNW) 08:29:18 437.200
GOMX 1 24 Jul 08:28:40 08:33:11 36° 289° (WNW) 08:37:55 467.674
O/OREOS (USA 219) 24 Jul 08:33:40 08:37:38 30° 256° (WSW) 08:41:37 437.305
SO-50 24 Jul 08:33:42 08:37:37 25° 112° (ESE) 08:41:32 436.795
CUTE 1.7 + AOD 2 24 Jul 08:35:21 08:38:59 28° 96° (E) 08:42:36 437.475
AAUSAT CUBESAT 2 24 Jul 08:38:12 08:38:59 10° 90° (E) 08:39:46 437.432
DOVE 4 24 Jul 08:39:06 08:44:05 58° 286° (WNW) 08:49:15 437.250
BRITE-PL 24 Jul 08:49:15 08:50:35 11° 296° (WNW) 08:51:57 437.365/2234.400
UWE-3 24 Jul 08:57:40 08:59:38 12° 90° (E) 09:01:34 435.000/436.395/437.385
AIST 2 24 Jul 08:58:38 08:59:35 11° 253° (WSW) 09:00:31 435.215
Cubesat XI-IV 24 Jul 09:00:08 09:03:45 19° 297° (WNW) 09:07:22 437.490
CUBEBUG 2 24 Jul 09:10:42 09:14:43 27° 94° (E) 09:18:39 437.445
YUBILEINY 24 Jul 09:16:10 09:22:37 24° 81° (E) 09:29:05 435.215
CINEMA 3 24 Jul 09:16:12 09:21:14 79° 284° (WNW) 09:26:15 145.822/145.860
HO-68 24 Jul 09:17:26 09:24:39 75° 105° (ESE) 09:31:50 435.675
RS-15 24 Jul 09:19:46 09:30:57 54° 312° (NW) 09:42:48 29.354- 29.394
SEEDS 24 Jul 09:20:35 09:24:44 67° 101° (E) 09:28:52 437.485
PRISM 24 Jul 09:21:52 09:25:50 52° 259° (W) 09:29:49 437.425
CUTE-I 24 Jul 09:26:48 09:28:14 11° 302° (WNW) 09:29:40 437.470
UNISAT 6 24 Jul 09:27:32 09:29:56 14° 63° (ENE) 09:32:20 437.425
NOAA 18 24 Jul 09:33:43 09:35:05 11° 303° (WNW) 09:36:26 137.9125
COMPASS 1 24 Jul 09:38:53 09:43:02 77° 102° (ESE) 09:47:08 437.405
Cosmos 2491 24 Jul 09:41:49 09:50:37 78° 83° (E) 09:59:23 435.465 / 435.565
Oscar 11 24 Jul 09:52:51 09:56:44 32° 97° (E) 10:00:36 145.826/435.025
CANX-2 24 Jul 09:57:01 10:00:36 28° 290° (WNW) 10:04:11 2200.000
ANTELSAT 24 Jul 10:04:08 10:08:13 33° 70° (ENE) 10:12:24 437.575/2403.000
AAUSAT CUBESAT 2 24 Jul 10:10:46 10:14:48 56° 286° (WNW) 10:18:49 437.432
CUTE 1.7 + AOD 2 24 Jul 10:11:23 10:14:41 23° 291° (WNW) 10:17:58 437.475
SO-50 24 Jul 10:13:18 10:17:54 40° 308° (NW) 10:22:29 436.795
M-CUBED/EXP-1 PRIME 24 Jul 10:27:01 10:30:56 26° 100° (E) 10:34:49 437.505
UWE-3 24 Jul 10:31:53 10:36:28 60° 286° (WNW) 10:40:56 435.000/436.395/437.385
QB50P2 24 Jul 10:34:22 10:35:16 11° 63° (ENE) 10:36:10 145.880/145.840
POLYITAN 1 24 Jul 10:36:48 10:37:54 11° 63° (ENE) 10:39:00 437.675
ZACube-1 24 Jul 10:40:14 10:44:46 74° 284° (WNW) 10:49:10 437.345
FUNcube-1 24 Jul 10:41:13 10:45:45 77° 284° (WNW) 10:50:08 145.935
TIGRISAT 24 Jul 10:46:14 10:50:49 87° 82° (E) 10:55:31 435.000
CUBEBUG 2 24 Jul 10:47:11 10:51:16 29° 291° (WNW) 10:55:17 437.445
HUMSAT D 24 Jul 10:49:08 10:52:46 27° 96° (E) 10:56:19 437.325/437.525
AUBIESAT-1 24 Jul 10:55:45 11:00:10 42° 103° (ESE) 11:04:32 437.475
SEEDS 24 Jul 10:59:27 10:59:51 10° 297° (WNW) 11:00:14 437.485
UNISAT 6 24 Jul 11:01:33 11:06:05 60° 260° (W) 11:10:43 437.425
DELFI C3 24 Jul 11:02:00 11:05:57 89° 312° (NW) 11:09:53 145.870
HO-68 24 Jul 11:06:29 11:11:37 22° 302° (WNW) 11:16:43 435.675
Cosmos 2504 24 Jul 11:09:26 11:17:37 45° 87° (E) 11:25:51 435.465 / 435.565
YUBILEINY 24 Jul 11:09:46 11:18:30 70° 279° (W) 11:27:21 435.215
NANOSAT C BR1 24 Jul 11:20:14 11:23:55 30° 70° (ENE) 11:27:40 145.865
DUCHIFAT 1 24 Jul 11:26:06 11:29:53 33° 71° (ENE) 11:33:41 145.980
Oscar 11 24 Jul 11:29:25 11:32:40 21° 292° (WNW) 11:35:53 145.826/435.025
RS-15 24 Jul 11:38:29 11:47:13 22° 342° (NNW) 11:56:14 29.354- 29.394
QB50P1 24 Jul 11:40:09 11:44:16 55° 74° (ENE) 11:48:27 145.935-145.965
Cosmos 2491 24 Jul 11:40:31 11:46:22 20° 281° (W) 11:52:16 435.465 / 435.565
ANTELSAT 24 Jul 11:41:16 11:44:56 23° 266° (W) 11:48:41 437.575/2403.000
POPSAT HIP 1 24 Jul 11:46:12 11:50:22 64° 76° (ENE) 11:54:37 437.405
AISAT 24 Jul 11:48:10 11:50:02 12° 91° (E) 11:51:53 437.250
BUGSAT 1 24 Jul 11:54:53 11:58:25 30° 70° (ENE) 12:02:01 437.445
JAS-2 24 Jul 12:00:10 12:05:35 33° 69° (ENE) 12:10:32 435.910
DX 1 24 Jul 12:00:21 12:01:34 11° 91° (E) 12:02:46 434.975-435.025
M-CUBED/EXP-1 PRIME 24 Jul 12:01:12 12:05:23 34° 295° (WNW) 12:09:37 437.505
QB50P2 24 Jul 12:06:15 12:10:28 68° 259° (WSW) 12:14:44 145.880/145.840
ESTCUBE 1 24 Jul 12:07:21 12:11:28 34° 98° (E) 12:15:33 437.505/2401.250
POLYITAN 1 24 Jul 12:08:53 12:13:06 67° 259° (W) 12:17:22 437.675
UKube-1 24 Jul 12:19:19 12:21:43 14° 93° (E) 12:24:06 .
HUMSAT D 24 Jul 12:24:57 12:28:14 23° 292° (WNW) 12:31:30 437.325/437.525
AUBIESAT-1 24 Jul 12:30:50 12:34:18 21° 298° (WNW) 12:37:46 437.475
VELOX 1 24 Jul 12:38:04 12:42:18 42° 99° (E) 12:46:32 145.980
CUBEBUG 1 24 Jul 12:47:56 12:52:19 66° 101° (E) 12:56:42 437.445
NANOSAT C BR1 24 Jul 12:56:29 12:59:40 21° 266° (W) 13:02:54 145.865
SPROUT 24 Jul 12:57:55 13:01:50 33° 97° (E) 13:05:43 437.525
DUCHIFAT 1 24 Jul 13:02:37 13:05:38 19° 266° (W) 13:08:40 145.980
Cosmos 2504 24 Jul 13:02:48 13:10:59 41° 286° (WNW) 13:19:15 435.465 / 435.565
Oscar 19 24 Jul 13:02:53 13:07:20 31° 68° (ENE) 13:11:48 437.125/150
YUBILEINY 24 Jul 13:13:24 13:17:06 13° 301° (WNW) 13:20:49 435.215
50 SAT 24 Jul 13:18:29 13:21:58 48° 286° (WNW) 13:25:25 437.505
QB50P1 24 Jul 13:18:55 13:20:23 12° 269° (W) 13:21:51 145.935-145.965
AISAT 24 Jul 13:22:27 13:26:49 57° 286° (WNW) 13:31:11 437.250
BUGSAT 1 24 Jul 13:30:50 13:33:49 20° 266° (W) 13:36:51 437.445
DX 1 24 Jul 13:33:48 13:38:06 61° 286° (WNW) 13:42:25 434.975-435.025
AIST 1 24 Jul 13:35:11 13:38:40 25° 89° (E) 13:42:09
ESTCUBE 1 24 Jul 13:44:40 13:48:02 21° 293° (WNW) 13:51:24 437.505/2401.250
JAS-2 24 Jul 13:44:57 13:50:36 34° 262° (W) 13:55:45 435.910
UKube-1 24 Jul 13:53:50 13:57:59 46° 288° (WNW) 14:02:06 .
Gurwin Techsat 1B 24 Jul 13:56:21 14:01:23 45° 71° (ENE) 14:06:26 435.225
RS-15 24 Jul 13:56:53 14:06:01 23° 19° (NNE) 14:15:12 29.354- 29.394
TISAT 1 24 Jul 14:05:11 14:09:15 43° 99° (E) 14:13:18 437.305
AO-85 24 Jul 14:07:38 14:11:58 25° 111° (ESE) 14:16:12 145.980
VELOX 1 24 Jul 14:15:31 14:18:25 17° 295° (WNW) 14:21:20 145.980
CUBEBUG 1 24 Jul 14:26:31 14:28:02 12° 297° (WNW) 14:29:33 437.445
ITAMSAT 1 24 Jul 14:29:59 14:34:33 31° 68° (ENE) 14:39:08 435.822/435.867
BEESAT 24 Jul 14:31:36 14:34:24 15° 92° (E) 14:37:12 436.000
SPROUT 24 Jul 14:34:20 14:37:33 21° 293° (WNW) 14:40:45 437.525
Oscar 19 24 Jul 14:42:11 14:46:36 29° 264° (W) 14:51:03 437.125/150
CUSAT 1 24 Jul 14:44:26 14:45:29 11° 76° (ENE) 14:46:35 437.405
ITUPSAT 1 24 Jul 14:51:39 14:55:34 25° 95° (E) 14:59:26 437.325
AO-7 24 Jul 15:06:26 15:14:13 45° 63° (ENE) 15:22:02 29.400- 29.500
AIST 1 24 Jul 15:12:46 15:16:11 23° 285° (WNW) 15:19:37
GONETS M04 24 Jul 15:18:25 15:25:53 34° 85° (E) 15:33:23
Gurwin Techsat 1B 24 Jul 15:37:30 15:41:30 22° 266° (W) 15:45:32 435.225
TISAT 1 24 Jul 15:41:56 15:44:33 16° 294° (WNW) 15:47:09 437.305
SWISSCUBE 24 Jul 15:45:57 15:50:44 78° 286° (WNW) 15:55:27 437.505
AO-85 24 Jul 15:47:04 15:52:14 46° 306° (NW) 15:57:12 145.980
BEESAT 24 Jul 16:07:50 16:12:28 51° 288° (WNW) 16:17:04 436.000
ITAMSAT 1 24 Jul 16:09:22 16:13:56 31° 263° (W) 16:18:33 435.822/435.867
RS-15 24 Jul 16:10:05 16:22:13 56° 49° (NE) 16:34:09 29.354- 29.394
Cosmos 2499 24 Jul 16:10:46 16:19:18 55° 90° (E) 16:27:46 435.465 / 435.565
DANDE 24 Jul 16:18:10 16:20:43 61° 80° (E) 16:23:27 436.750
STARS 24 Jul 16:18:21 16:19:01 10° 90° (E) 16:19:41 437.465
CUSAT 1 24 Jul 16:25:06 16:27:22 20° 264° (W) 16:29:58 437.405
ITUPSAT 1 24 Jul 16:29:09 16:33:24 32° 291° (WNW) 16:37:37 437.325
AO-7 24 Jul 16:59:16 17:06:58 40° 261° (W) 17:14:45 29.400- 29.500
KKS-1 24 Jul 17:04:10 17:08:40 75° 102° (ESE) 17:13:09 437.445
Cubesat XI-IV 24 Jul 17:04:34 17:05:53 11° 58° (ENE) 17:07:12 437.490
SO-50 24 Jul 17:06:04 17:09:21 19° 44° (NE) 17:12:34 436.795
GONETS M04 24 Jul 17:14:00 17:22:19 50° 284° (WNW) 17:30:45
MOZHAYETS 4 24 Jul 17:16:08 17:20:43 76° 283° (WNW) 17:25:14
HORYU 2 24 Jul 17:25:05 17:29:34 83° 254° (WSW) 17:34:06 437.375
CUTE-I 24 Jul 17:26:40 17:30:14 18° 63° (ENE) 17:33:48 437.470
LilacSat-2 24 Jul 17:31:39 17:33:07 12° 65° (ENE) 17:34:35 437.200
NOAA 18 24 Jul 17:36:02 17:40:20 24° 64° (ENE) 17:44:40 137.9125
STARS 24 Jul 17:51:22 17:55:47 67° 286° (WNW) 18:00:11 437.465
NOAA 15 24 Jul 17:55:17 18:00:13 43° 70° (ENE) 18:05:10 137.62
GOMX 1 24 Jul 17:59:21 18:02:22 20° 67° (ENE) 18:05:27 467.674
Cosmos 2499 24 Jul 18:04:57 18:12:43 33° 288° (WNW) 18:20:26 435.465 / 435.565
DOVE 4 24 Jul 18:09:27 18:10:54 12° 62° (ENE) 18:12:23 437.250
BRITE-PL 24 Jul 18:18:27 18:22:39 80° 75° (ENE) 18:26:48 437.365/2234.400
CUBESAT XI-V 24 Jul 18:27:06 18:31:43 73° 102° (ESE) 18:36:19 437.345
